QPF
0.79 0.78 0.71 0.50 0.45 0.35 0.24 0.16 0.12 0.08 0.04 0.02 0.02 0.01 0.01 0.01 0.02 0.04 0.04 0.04 0.03 0.03 0.03 0.04 0.07 0.08 0.07 0.06 0.07 0.11 0.11 0.07 0.08 0.06 0.03 0.02 0.02 0.05 0.09 0.14 0.15 0.10 0.05
0.54 0.53 0.44 0.39 0.41 0.45 0.42 0.32 0.24 0.16 0.10 0.07 0.05 0.03 0.03 0.04 0.04 0.05 0.05 0.04 0.03 0.03 0.04 0.04 0.05 0.06 0.06 0.06 0.07 0.11 0.11 0.08 0.10 0.09 0.08 0.04 0.03 0.07 0.17 0.29 0.30 0.19 0.08
0.14 0.19 0.21 0.26 0.32 0.39 0.40 0.32 0.23 0.17 0.13 0.11 0.08 0.05 0.05 0.06 0.05 0.04 0.03 0.03 0.02 0.01 0.01 0.02 0.02 0.04 0.05 0.05 0.05 0.08 0.10 0.07 0.09 0.11 0.11 0.09 0.06 0.04 0.06 0.10 0.16 0.18 0.14
0.09 0.14 0.16 0.17 0.20 0.23 0.24 0.21 0.20 0.17 0.17 0.16 0.12 0.09 0.08 0.07 0.06 0.05 0.03 0.02 0.01 0.01 0.00 0.01 0.01 0.02 0.04 0.05 0.06 0.10 0.11 0.12 0.13 0.15 0.14 0.12 0.12 0.09 0.03 0.03 0.08 0.12 0.14
0.14 0.16 0.17 0.16 0.15 0.17 0.19 0.18 0.18 0.17 0.15 0.13 0.11 0.10 0.07 0.04 0.04 0.02 0.01 0.00 0.00 0.00 0.01 0.01 0.02 0.03 0.05 0.08 0.09 0.12 0.14 0.15 0.15 0.16 0.15 0.13 0.13 0.13 0.11 0.05 0.02 0.03 0.05
0.19 0.21 0.23 0.21 0.14 0.12 0.12 0.11 0.10 0.08 0.08 0.08 0.07 0.05 0.03 0.02 0.01 0.00 0.00 0.00 0.00 0.00 0.01 0.01 0.03 0.05 0.08 0.11 0.14 0.14 0.14 0.14 0.14 0.13 0.14 0.15 0.16 0.16 0.17 0.12 0.08 0.04 0.02
0.21 0.19 0.19 0.18 0.13 0.09 0.05 0.04 0.04 0.04 0.04 0.03 0.02 0.02 0.01 0.00 0.00 0.00 0.00 0.00 0.00 0.00 0.01 0.01 0.03 0.06 0.10 0.13 0.14 0.14 0.13 0.13 0.12 0.13 0.14 0.16 0.17 0.21 0.29 0.37 0.36 0.24 0.11
0.16 0.13 0.13 0.12 0.10 0.06 0.04 0.03 0.02 0.02 0.03 0.03 0.01 0.01 0.00 0.00 0.00 0.00 0.00 0.00 0.00 0.00 0.00 0.01 0.03 0.05 0.07 0.10 0.11 0.12 0.12 0.12 0.12 0.13 0.16 0.18 0.18 0.19 0.27 0.39 0.46 0.42 0.23
0.20 0.16 0.13 0.11 0.09 0.06 0.04 0.03 0.03 0.02 0.02 0.02 0.01 0.01 0.00 0.00 0.00 0.00 0.00 0.00 0.00 0.00 0.00 0.01 0.04 0.07 0.09 0.12 0.13 0.14 0.15 0.14 0.13 0.14 0.16 0.16 0.15 0.14 0.18 0.30 0.36 0.36 0.25
0.23 0.17 0.12 0.09 0.08 0.06 0.05 0.04 0.04 0.03 0.02 0.01 0.01 0.00 0.00 0.00 0.00 0.00 0.00 0.00 0.00 0.00 0.01 0.02 0.04 0.07 0.11 0.14 0.17 0.18 0.19 0.21 0.22 0.23 0.21 0.19 0.17 0.15 0.17 0.21 0.23 0.23 0.16
0.21 0.16 0.11 0.07 0.06 0.06 0.05 0.04 0.03 0.02 0.01 0.01 0.00 0.00 0.00 0.00 0.00 0.00 0.00 0.00 0.00 0.00 0.00 0.01 0.02 0.04 0.07 0.10 0.12 0.14 0.16 0.19 0.21 0.21 0.21 0.20 0.19 0.17 0.14 0.13 0.13 0.14 0.12
0.16 0.11 0.08 0.06 0.06 0.05 0.04 0.04 0.03 0.01 0.01 0.01 0.01 0.00 0.00 0.00 0.00 0.00 0.00 0.00 0.00 0.00 0.00 0.00 0.00 0.01 0.02 0.03 0.05 0.07 0.09 0.11 0.12 0.14 0.16 0.16 0.14 0.11 0.09 0.08 0.07 0.08 0.09
0.17 0.13 0.09 0.06 0.04 0.03 0.03 0.02 0.02 0.02 0.01 0.01 0.01 0.01 0.01 0.00 0.00 0.00 0.00 0.00 0.00 0.00 0.00 0.00 0.00 0.00 0.00 0.00 0.01 0.02 0.03 0.04 0.06 0.08 0.08 0.06 0.04 0.03 0.02 0.02 0.02 0.03 0.05
0.11 0.07 0.04 0.02 0.02 0.01 0.01 0.00 0.01 0.01 0.01 0.01 0.02 0.02 0.01 0.01 0.00 0.00 0.00 0.00 0.00 0.00 0.00 0.00 0.00 0.00 0.00 0.00 0.00 0.00 0.01 0.02 0.04 0.04 0.03 0.01 0.01 0.00 0.00 0.00 0.00 0.01 0.03
0.07 0.04 0.02 0.01 0.01 0.00 0.00 0.00 0.00 0.01 0.01 0.01 0.01 0.01 0.01 0.01 0.00 0.00 0.00 0.00 0.00 0.00 0.00 0.00 0.00 0.00 0.00 0.00 0.00 0.00 0.01 0.02 0.02 0.02 0.01 0.00 0.00 0.00 0.00 0.00 0.00 0.00 0.02
0.07 0.04 0.02 0.01 0.00 0.00 0.00 0.00 0.01 0.01 0.01 0.01 0.01 0.01 0.01 0.01 0.01 0.00 0.00 0.00 0.00 0.00 0.00 0.00 0.00 0.00 0.00 0.00 0.00 0.00 0.00 0.00 0.00 0.00 0.00 0.00 0.00 0.00 0.00 0.00 0.00 0.00 0.00
0.05 0.03 0.02 0.01 0.00 0.00 0.01 0.01 0.02 0.03 0.03 0.02 0.01 0.01 0.01 0.01 0.01 0.00 0.00 0.00 0.00 0.00 0.00 0.00 0.00 0.00 0.00 0.00 0.00 0.00 0.00 0.00 0.00 0.00 0.00 0.00 0.00 0.00 0.00 0.00 0.00 0.00 0.00
0.02 0.01 0.01 0.00 0.00 0.00 0.01 0.02 0.04 0.07 0.06 0.04 0.02 0.01 0.01 0.01 0.00 0.00 0.00 0.00 0.00 0.01 0.01 0.01 0.00 0.00 0.00 0.00 0.00 0.00 0.00 0.00 0.00 0.00 0.00 0.00 0.00 0.00 0.00 0.00 0.00 0.00 0.00
0.00 0.00 0.00 0.00 0.00 0.01 0.02 0.03 0.05 0.09 0.09 0.07 0.03 0.01 0.01 0.00 0.00 0.00 0.00 0.00 0.00 0.00 0.01 0.01 0.00 0.00 0.00 0.00 0.00 0.00 0.00 0.00 0.00 0.00 0.00 0.00 0.00 0.00 0.00 0.00 0.00 0.00 0.00
0.00 0.00 0.00 0.00 0.01 0.02 0.03 0.04 0.06 0.07 0.08 0.05 0.02 0.01 0.01 0.00 0.00 0.00 0.00 0.00 0.00 0.00 0.00 0.01 0.00 0.00 0.00 0.00 0.00 0.00 0.00 0.00 0.00 0.00 0.00 0.00 0.00 0.00 0.00 0.00 0.00 0.00 0.00
0.00 0.00 0.00 0.01 0.02 0.03 0.03 0.05 0.06 0.05 0.05 0.02 0.01 0.00 0.00 0.00 0.00 0.00 0.00 0.00 0.00 0.00 0.00 0.00 0.00 0.00 0.00 0.00 0.00 0.00 0.00 0.00 0.00 0.00 0.00 0.00 0.00 0.00 0.00 0.00 0.00 0.00 0.00
0.00 0.00 0.00 0.01 0.02 0.02 0.03 0.04 0.03 0.02 0.02 0.01 0.00 0.00 0.00 0.00 0.01 0.01 0.01 0.00 0.00 0.00 0.00 0.00 0.00 0.00 0.00 0.00 0.00 0.00 0.00 0.00 0.00 0.00 0.00 0.00 0.00 0.00 0.00 0.00 0.00 0.00 0.00
0.00 0.00 0.01 0.01 0.02 0.02 0.02 0.02 0.01 0.00 0.00 0.00 0.00 0.00 0.00 0.00 0.01 0.01 0.01 0.00 0.00 0.01 0.01 0.01 0.00 0.00 0.00 0.00 0.00 0.00 0.00 0.00 0.00 0.00 0.00 0.00 0.00 0.00 0.00 0.00 0.00 0.00 0.00
0.00 0.00 0.00 0.01 0.02 0.03 0.02 0.01 0.01 0.00 0.00 0.00 0.00 0.00 0.00 0.00 0.00 0.00 0.00 0.00 0.00 0.00 0.00 0.00 0.00 0.00 0.00 0.00 0.00 0.00 0.00 0.00 0.00 0.00 0.00 0.00 0.00 0.00 0.00 0.00 0.00 0.00 0.00
0.00 0.00 0.00 0.01 0.02 0.02 0.02 0.01 0.00 0.00 0.00 0.00 0.00 0.00 0.00 0.00 0.00 0.00 0.00 0.00 0.00 0.00 0.00 0.00 0.00 0.00 0.00 0.00 0.00 0.00 0.00 0.00 0.00 0.00 0.00 0.00 0.00 0.00 0.00 0.00 0.00 0.00 0.00
0.00 0.00 0.00 0.01 0.01 0.01 0.01 0.00 0.00 0.00 0.00 0.00 0.00 0.00 0.00 0.00 0.00 0.00 0.00 0.00 0.00 0.00 0.00 0.00 0.00 0.00 0.00 0.00 0.00 0.00 0.00 0.00 0.00 0.00 0.00 0.00 0.00 0.00 0.00 0.00 0.00 0.00 0.00
MSLP
1010.78 1011.15 1011.39 1011.48 1011.44 1011.31 1011.16 1011.03 1010.97 1011.02 1011.17 1011.40 1011.69 1011.98 1012.24 1012.45 1012.58 1012.64 1012.64 1012.61 1012.57 1012.55 1012.56 1012.62 1012.73 1012.87 1013.02 1013.17 1013.30 1013.40 1013.46 1013.48 1013.45 1013.39 1013.30 1013.16 1012.99 1012.78 1012.52 1012.23 1011.92 1011.61 1011.33
1010.84 1011.22 1011.46 1011.54 1011.46 1011.30 1011.10 1010.93 1010.87 1010.94 1011.13 1011.42 1011.77 1012.13 1012.44 1012.66 1012.79 1012.81 1012.76 1012.67 1012.56 1012.48 1012.43 1012.43 1012.47 1012.55 1012.63 1012.71 1012.77 1012.82 1012.85 1012.87 1012.88 1012.89 1012.88 1012.85 1012.78 1012.66 1012.46 1012.19 1011.86 1011.50 1011.15
1010.85 1011.23 1011.47 1011.54 1011.46 1011.28 1011.08 1010.92 1010.87 1010.97 1011.21 1011.56 1011.96 1012.37 1012.71 1012.95 1013.06 1013.05 1012.95 1012.80 1012.63 1012.48 1012.36 1012.30 1012.26 1012.25 1012.25 1012.24 1012.22 1012.20 1012.20 1012.21 1012.26 1012.35 1012.44 1012.54 1012.59 1012.57 1012.45 1012.22 1011.90 1011.51 1011.10
1010.89 1011.26 1011.49 1011.56 1011.48 1011.32 1011.13 1010.99 1010.97 1011.11 1011.39 1011.78 1012.22 1012.65 1013.01 1013.24 1013.34 1013.30 1013.16 1012.96 1012.74 1012.53 1012.36 1012.22 1012.11 1012.02 1011.92 1011.82 1011.72 1011.64 1011.59 1011.60 1011.68 1011.83 1012.02 1012.23 1012.40 1012.49 1012.46 1012.29 1012.00 1011.61 1011.16
1011.05 1011.36 1011.57 1011.63 1011.56 1011.41 1011.25 1011.14 1011.15 1011.32 1011.62 1012.03 1012.49 1012.92 1013.27 1013.49 1013.57 1013.51 1013.34 1013.12 1012.87 1012.62 1012.41 1012.22 1012.04 1011.87 1011.69 1011.51 1011.33 1011.18 1011.09 1011.09 1011.19 1011.38 1011.65 1011.94 1012.21 1012.40 1012.45 1012.35 1012.10 1011.72 1011.25
1011.35 1011.59 1011.75 1011.79 1011.73 1011.59 1011.44 1011.35 1011.38 1011.55 1011.86 1012.26 1012.70 1013.12 1013.45 1013.65 1013.71 1013.64 1013.47 1013.24 1012.98 1012.73 1012.49 1012.27 1012.05 1011.83 1011.58 1011.33 1011.08 1010.87 1010.74 1010.72 1010.81 1011.03 1011.33 1011.68 1012.01 1012.26 1012.38 1012.34 1012.12 1011.77 1011.32
1011.79 1011.94 1012.03 1012.04 1011.96 1011.82 1011.68 1011.60 1011.63 1011.78 1012.06 1012.43 1012.83 1013.21 1013.51 1013.69 1013.75 1013.68 1013.52 1013.31 1013.07 1012.84 1012.61 1012.38 1012.14 1011.88 1011.59 1011.29 1010.99 1010.73 1010.56 1010.50 1010.57 1010.78 1011.08 1011.44 1011.79 1012.07 1012.21 1012.20 1012.03 1011.71 1011.28
1012.30 1012.35 1012.37 1012.33 1012.23 1012.08 1011.93 1011.84 1011.85 1011.98 1012.21 1012.53 1012.88 1013.21 1013.48 1013.64 1013.69 1013.64 1013.51 1013.34 1013.14 1012.94 1012.74 1012.52 1012.28 1012.01 1011.70 1011.37 1011.03 1010.74 1010.52 1010.42 1010.46 1010.62 1010.89 1011.21 1011.54 1011.80 1011.94 1011.94 1011.79 1011.51 1011.12
1012.77 1012.74 1012.70 1012.61 1012.48 1012.32 1012.17 1012.06 1012.04 1012.13 1012.32 1012.58 1012.87 1013.15 1013.38 1013.52 1013.58 1013.55 1013.47 1013.34 1013.20 1013.04 1012.88 1012.69 1012.46 1012.19 1011.87 1011.53 1011.17 1010.85 1010.60 1010.47 1010.45 1010.56 1010.76 1011.02 1011.28 1011.49 1011.60 1011.59 1011.44 1011.18 1010.84
1013.13 1013.04 1012.95 1012.83 1012.68 1012.51 1012.35 1012.24 1012.21 1012.27 1012.41 1012.62 1012.86 1013.09 1013.28 1013.41 1013.47 1013.48 1013.43 1013.35 1013.26 1013.15 1013.02 1012.86 1012.65 1012.39 1012.08 1011.73 1011.37 1011.04 1010.77 1010.60 1010.54 1010.58 1010.71 1010.89 1011.06 1011.20 1011.25 1011.20 1011.04 1010.80 1010.50
1013.32 1013.19 1013.08 1012.95 1012.80 1012.64 1012.49 1012.39 1012.36 1012.40 1012.52 1012.69 1012.88 1013.08 1013.24 1013.36 1013.43 1013.45 1013.44 1013.40 1013.34 1013.27 1013.17 1013.03 1012.84 1012.59 1012.29 1011.95 1011.61 1011.28 1011.01 1010.82 1010.72 1010.71 1010.76 1010.86 1010.94 1010.99 1010.97 1010.87 1010.68 1010.44 1010.16
1013.34 1013.21 1013.09 1012.97 1012.84 1012.70 1012.59 1012.52 1012.51 1012.56 1012.67 1012.82 1012.99 1013.15 1013.29 1013.40 1013.46 1013.49 1013.50 1013.49 1013.46 1013.41 1013.33 1013.20 1013.03 1012.79 1012.51 1012.19 1011.86 1011.56 1011.30 1011.11 1010.99 1010.95 1010.94 1010.96 1010.97 1010.93 1010.83 1010.67 1010.45 1010.19 1009.92
1013.23 1013.12 1013.02 1012.92 1012.82 1012.74 1012.68 1012.66 1012.69 1012.77 1012.89 1013.04 1013.19 1013.33 1013.44 1013.53 1013.58 1013.61 1013.63 1013.62 1013.61 1013.57 1013.50 1013.38 1013.21 1012.99 1012.73 1012.44 1012.15 1011.87 1011.65 1011.47 1011.36 1011.29 1011.26 1011.22 1011.16 1011.05 1010.88 1010.66 1010.40 1010.11 1009.83
1013.09 1013.00 1012.92 1012.85 1012.79 1012.76 1012.76 1012.81 1012.89 1013.02 1013.16 1013.32 1013.46 1013.58 1013.66 1013.72 1013.76 1013.78 1013.78 1013.78 1013.77 1013.74 1013.67 1013.56 1013.41 1013.21 1012.97 1012.72 1012.46 1012.23 1012.04 1011.90 1011.81 1011.74 1011.69 1011.62 1011.51 1011.34 1011.12 1010.84 1010.53 1010.21 1009.90
1012.95 1012.89 1012.83 1012.78 1012.77 1012.79 1012.86 1012.97 1013.12 1013.29 1013.46 1013.62 1013.75 1013.85 1013.91 1013.94 1013.95 1013.95 1013.94 1013.94 1013.93 1013.90 1013.85 1013.76 1013.63 1013.45 1013.25 1013.03 1012.82 1012.63 1012.49 1012.38 1012.31 1012.25 1012.20 1012.11 1011.97 1011.77 1011.50 1011.18 1010.82 1010.46 1010.12
1012.89 1012.83 1012.78 1012.75 1012.77 1012.84 1012.96 1013.13 1013.32 1013.53 1013.73 1013.89 1014.02 1014.09 1014.12 1014.12 1014.11 1014.09 1014.08 1014.08 1014.08 1014.07 1014.04 1013.97 1013.87 1013.73 1013.56 1013.38 1013.21 1013.06 1012.96 1012.88 1012.83 1012.79 1012.73 1012.64 1012.48 1012.25 1011.95 1011.60 1011.22 1010.82 1010.45
1012.88 1012.82 1012.77 1012.75 1012.79 1012.89 1013.05 1013.26 1013.49 1013.73 1013.94 1014.11 1014.22 1014.27 1014.27 1014.25 1014.22 1014.19 1014.18 1014.19 1014.21 1014.23 1014.23 1014.20 1014.14 1014.04 1013.91 1013.77 1013.63 1013.52 1013.43 1013.38 1013.34 1013.30 1013.24 1013.14 1012.97 1012.73 1012.41 1012.04 1011.64 1011.23 1010.83
1012.91 1012.84 1012.78 1012.77 1012.81 1012.93 1013.11 1013.34 1013.60 1013.85 1014.07 1014.23 1014.33 1014.36 1014.35 1014.31 1014.27 1014.25 1014.25 1014.28 1014.34 1014.40 1014.45 1014.47 1014.45 1014.39 1014.30 1014.19 1014.08 1013.98 1013.90 1013.85 1013.81 1013.76 1013.69 1013.57 1013.39 1013.14 1012.82 1012.45 1012.04 1011.62 1011.23
1012.93 1012.85 1012.79 1012.77 1012.82 1012.94 1013.14 1013.38 1013.65 1013.90 1014.12 1014.27 1014.36 1014.39 1014.37 1014.33 1014.30 1014.30 1014.33 1014.40 1014.50 1014.60 1014.70 1014.77 1014.79 1014.77 1014.71 1014.63 1014.53 1014.43 1014.35 1014.28 1014.22 1014.16 1014.06 1013.93 1013.74 1013.48 1013.16 1012.79 1012.40 1011.99 1011.61
1012.88 1012.82 1012.76 1012.74 1012.80 1012.93 1013.12 1013.37 1013.64 1013.89 1014.10 1014.26 1014.35 1014.38 1014.37 1014.35 1014.35 1014.38 1014.45 1014.56 1014.70 1014.86 1015.00 1015.11 1015.18 1015.19 1015.15 1015.08 1014.98 1014.88 1014.78 1014.69 1014.60 1014.51 1014.39 1014.23 1014.03 1013.77 1013.46 1013.11 1012.73 1012.35 1011.98
1012.74 1012.70 1012.67 1012.68 1012.75 1012.88 1013.09 1013.33 1013.59 1013.84 1014.06 1014.22 1014.32 1014.37 1014.40 1014.41 1014.45 1014.52 1014.63 1014.79 1014.98 1015.17 1015.35 1015.49 1015.59 1015.62 1015.60 1015.53 1015.44 1015.32 1015.20 1015.09 1014.97 1014.85 1014.70 1014.53 1014.31 1014.05 1013.75 1013.42 1013.07 1012.72 1012.39
1012.50 1012.51 1012.53 1012.58 1012.67 1012.82 1013.03 1013.27 1013.53 1013.79 1014.01 1014.18 1014.31 1014.40 1014.46 1014.53 1014.61 1014.73 1014.89 1015.09 1015.30 1015.53 1015.73 1015.89 1016.00 1016.05 1016.04 1015.98 1015.88 1015.76 1015.63 1015.49 1015.36 1015.21 1015.05 1014.86 1014.64 1014.38 1014.09 1013.78 1013.46 1013.14 1012.84
1012.16 1012.25 1012.34 1012.43 1012.56 1012.74 1012.96 1013.20 1013.47 1013.72 1013.95 1014.15 1014.31 1014.45 1014.57 1014.69 1014.82 1014.99 1015.19 1015.41 1015.65 1015.89 1016.10 1016.27 1016.39 1016.44 1016.44 1016.39 1016.30 1016.18 1016.06 1015.92 1015.77 1015.62 1015.45 1015.25 1015.03 1014.78 1014.51 1014.22 1013.92 1013.64 1013.36
1011.74 1011.93 1012.09 1012.25 1012.43 1012.63 1012.86 1013.12 1013.38 1013.64 1013.89 1014.12 1014.32 1014.50 1014.67 1014.85 1015.04 1015.25 1015.48 1015.72 1015.97 1016.21 1016.42 1016.59 1016.70 1016.76 1016.77 1016.74 1016.67 1016.58 1016.47 1016.35 1016.21 1016.06 1015.90 1015.71 1015.50 1015.26 1015.00 1014.73 1014.46 1014.20 1013.95
1011.27 1011.55 1011.79 1012.02 1012.24 1012.48 1012.73 1012.99 1013.26 1013.53 1013.79 1014.04 1014.28 1014.51 1014.73 1014.96 1015.20 1015.44 1015.69 1015.95 1016.20 1016.43 1016.63 1016.79 1016.90 1016.97 1017.00 1017.00 1016.96 1016.90 1016.83 1016.74 1016.64 1016.51 1016.37 1016.20 1016.00 1015.77 1015.53 1015.29 1015.04 1014.80 1014.57
1010.74 1011.10 1011.42 1011.72 1011.99 1012.25 1012.52 1012.79 1013.06 1013.34 1013.61 1013.89 1014.16 1014.43 1014.70 1014.97 1015.24 1015.51 1015.77 1016.03 1016.27 1016.49 1016.68 1016.83 1016.95 1017.04 1017.09 1017.12 1017.13 1017.12 1017.10 1017.06 1017.00 1016.91 1016.79 1016.64 1016.47 1016.27 1016.05 1015.82 1015.60 1015.38 1015.17
Thickness
5791 5791 5792 5791 5789 5786 5786 5785 5784 5785 5783 5780 5776 5772 5770 5771 5770 5770 5769 5769 5768 5767 5767 5765 5763 5761 5759 5758 5757 5754 5751 5750 5749 5745 5743 5747 5751 5753 5754 5754 5753 5753 5752
5783 5781 5783 5785 5783 5780 5780 5776 5773 5774 5774 5772 5770 5768 5766 5764 5763 5762 5761 5760 5760 5760 5760 5758 5756 5756 5754 5753 5752 5749 5745 5745 5744 5738 5733 5731 5736 5744 5750 5750 5750 5749 5747
5777 5775 5775 5776 5775 5772 5770 5768 5764 5765 5765 5764 5763 5760 5758 5755 5753 5751 5750 5751 5751 5751 5752 5752 5751 5750 5749 5747 5747 5745 5741 5737 5738 5737 5730 5723 5722 5729 5738 5742 5743 5742 5741
5766 5764 5764 5764 5764 5761 5759 5757 5756 5755 5755 5754 5752 5748 5744 5741 5741 5741 5741 5742 5743 5743 5744 5744 5745 5745 5744 5743 5742 5741 5738 5734 5730 5730 5731 5729 5727 5721 5722 5730 5735 5737 5736
5750 5748 5750 5751 5752 5751 5749 5747 5746 5745 5744 5744 5742 5738 5735 5734 5733 5733 5732 5733 5733 5734 5735 5736 5737 5738 5738 5738 5736 5735 5733 5730 5727 5724 5723 5721 5721 5720 5716 5716 5723 5728 5732
5735 5733 5734 5735 5737 5739 5739 5738 5736 5735 5734 5734 5732 5729 5726 5725 5724 5723 5722 5723 5723 5724 5724 5726 5727 5728 5730 5730 5730 5728 5726 5724 5722 5720 5718 5716 5713 5712 5711 5710 5712 5715 5723
5722 5720 5719 5719 5721 5724 5726 5726 5725 5723 5724 5723 5721 5719 5717 5716 5715 5714 5713 5712 5712 5712 5712 5713 5714 5716 5718 5719 5720 5719 5717 5716 5714 5713 5712 5711 5710 5708 5706 5704 5704 5706 5711
5706 5707 5706 5705 5707 5710 5713 5714 5715 5713 5713 5711 5709 5708 5707 5706 5705 5705 5704 5702 5702 5701 5701 5701 5702 5702 5703 5705 5706 5706 5705 5705 5704 5704 5704 5703 5703 5702 5700 5698 5696 5695 5697
5689 5690 5693 5692 5693 5695 5697 5700 5701 5701 5700 5699 5697 5696 5695 5695 5694 5694 5693 5692 5691 5690 5689 5689 5689 5689 5690 5690 5691 5691 5691 5692 5693 5693 5694 5694 5695 5695 5695 5693 5692 5688 5685
5669 5672 5677 5680 5681 5683 5684 5685 5686 5687 5687 5687 5686 5685 5684 5684 5683 5682 5681 5679 5679 5678 5678 5678 5679 5679 5679 5680 5680 5680 5680 5681 5681 5682 5683 5684 5685 5686 5687 5686 5686 5684 5680
5654 5656 5661 5665 5668 5670 5671 5670 5672 5675 5675 5675 5675 5674 5673 5673 5672 5670 5670 5669 5668 5669 5669 5670 5670 5671 5671 5671 5671 5671 5671 5672 5672 5673 5673 5674 5675 5676 5678 5679 5679 5679 5677
5645 5646 5648 5651 5655 5658 5659 5660 5661 5663 5665 5666 5666 5665 5663 5662 5661 5660 5660 5660 5660 5661 5662 5663 5663 5664 5665 5665 5665 5665 5665 5665 5664 5664 5663 5663 5665 5665 5667 5669 5670 5671 5673
5637 5637 5637 5639 5642 5647 5649 5650 5651 5653 5655 5657 5656 5655 5653 5652 5651 5651 5651 5652 5652 5652 5653 5654 5654 5655 5656 5658 5659 5660 5660 5659 5657 5656 5654 5653 5654 5654 5656 5659 5661 5665 5669
5628 5629 5629 5630 5634 5637 5639 5641 5642 5644 5646 5646 5645 5644 5644 5644 5643 5643 5643 5644 5644 5643 5643 5643 5644 5645 5647 5649 5650 5652 5652 5650 5649 5648 5647 5646 5646 5646 5649 5653 5654 5658 5663
5619 5622 5622 5624 5627 5629 5630 5632 5633 5635 5636 5636 5635 5635 5636 5636 5635 5634 5635 5636 5635 5634 5633 5633 5633 5634 5636 5637 5639 5640 5640 5639 5638 5639 5639 5639 5640 5641 5643 5645 5647 5651 5656
5612 5615 5617 5618 5619 5621 5622 5623 5624 5625 5626 5625 5625 5626 5627 5627 5626 5626 5626 5626 5625 5624 5623 5622 5621 5622 5623 5625 5627 5628 5626 5626 5626 5626 5627 5629 5629 5632 5635 5637 5640 5643 5646
5608 5610 5611 5611 5612 5613 5614 5614 5615 5616 5616 5616 5616 5616 5616 5616 5616 5617 5617 5616 5616 5614 5613 5612 5611 5610 5611 5614 5615 5614 5612 5611 5611 5611 5612 5615 5616 5619 5622 5625 5629 5632 5635
5606 5606 5606 5605 5606 5607 5608 5608 5608 5608 5608 5607 5606 5607 5607 5607 5606 5606 5607 5607 5607 5606 5604 5602 5601 5601 5601 5602 5602 5601 5599 5597 5596 5596 5597 5599 5600 5603 5607 5610 5614 5617 5621
5605 5603 5603 5602 5601 5601 5602 5601 5601 5601 5600 5599 5599 5599 5599 5598 5598 5597 5598 5598 5598 5596 5595 5593 5592 5590 5589 5591 5591 5590 5587 5584 5583 5584 5585 5586 5587 5589 5594 5596 5599 5603 5607
5605 5602 5601 5598 5596 5596 5597 5596 5595 5595 5594 5594 5593 5593 5593 5591 5590 5590 5590 5590 5589 5587 5586 5583 5581 5580 5579 5580 5582 5581 5578 5575 5574 5573 5574 5575 5576 5577 5580 5581 5583 5585 5589
5606 5603 5600 5596 5594 5594 5594 5592 5591 5590 5591 5590 5589 5588 5587 5586 5585 5585 5584 5583 5581 5578 5575 5572 5570 5569 5569 5569 5571 5572 5570 5567 5564 5563 5563 5564 5566 5567 5569 5570 5570 5571 5576
5606 5603 5597 5594 5593 5592 5591 5588 5587 5587 5587 5585 5584 5582 5582 5582 5582 5579 5578 5576 5573 5569 5565 5562 5559 5559 5558 5559 5559 5560 5559 5558 5555 5553 5552 5554 5556 5558 5559 5560 5561 5564 5566
5606 5602 5598 5594 5592 5591 5589 5586 5585 5585 5583 5581 5579 5578 5577 5577 5576 5574 5572 5569 5566 5562 5558 5554 5551 5550 5549 5548 5548 5548 5547 5546 5543 5542 5544 5545 5546 5547 5548 5549 5551 5552 5552
5607 5603 5598 5594 5592 5590 5589 5586 5585 5583 5580 5577 5575 5573 5572 5570 5569 5568 5566 5564 5561 5557 5553 5549 5546 5543 5541 5539 5538 5537 5535 5534 5532 5531 5532 5534 5535 5535 5536 5536 5537 5537 5538
5609 5605 5600 5596 5593 5591 5589 5587 5584 5581 5577 5574 5572 5570 5567 5565 5563 5560 5558 5557 5555 5554 5550 5546 5543 5539 5535 5533 5531 5528 5525 5523 5521 5521 5520 5519 5519 5520 5520 5521 5521 5522 5523
5610 5606 5602 5598 5595 5591 5588 5586 5584 5580 5576 5572 5569 5566 5563 5560 5557 5554 5551 5550 5549 5547 5546 5543 5539 5535 5533 5529 5525 5522 5519 5516 5514 5510 5507 5505 5504 5504 5504 5503 5504 5505 5505